Location: Luz Observatory
(34.5000°N, 117.2833°W)
Time: 01:51:06
(UTC-08:00)

Daily predictions for brighter satellites

Satellite Brightness Start Highest point End
(mag) Time Altitude Azimuth Time Altitude Azimuth Time Altitude Azimuth
CZ-3 R/B 4.5 02:23:34 10° SW 02:52:48 34° S 03:01:32 10° ESE
Cosmos 1603 4.5 04:01:03 46° NE 04:01:03 46° NE 04:05:12 10° NNE
Cosmos 2184 Rocket 4.2 04:04:55 10° S 04:11:00 68° E 04:17:09 10° NNE
Cosmos 1943 4.4 04:17:31 10° S 04:22:40 39° ESE 04:27:53 10° NE
Cosmos 921 Rocket 3.9 04:24:13 46° SE 04:24:13 46° SE 04:27:28 10° SSE
Meteor 1-18 Rocket 4.2 04:26:08 70° NNW 04:26:52 85° W 04:32:48 10° S
Feng Yun 1-1 Rocket 4.0 04:25:01 10° NNE 04:30:34 82° WNW 04:36:00 10° SSW
Thor Agena Rocket 3.5 04:30:24 10° S 04:34:46 63° SSW 04:34:46 63° SSW
Okean 1 Rocket 3.9 04:32:48 10° SSE 04:37:03 49° E 04:41:16 10° NNE
Cosmos 2056 Rocket 3.8 04:40:01 30° N 04:42:31 63° ENE 04:47:32 10° SSE
Cosmos 1238 Rocket 3.6 04:43:22 59° WNW 04:43:53 62° W 04:49:58 10° S
COSMO-SKYMED 1 3.8 04:40:41 10° SE 04:44:43 40° ENE 04:48:38 11° N
Cosmos 1610 Rocket 4.4 04:40:49 10° S 04:46:58 87° W 04:53:15 10° N
Cosmos 1602 3.8 04:48:00 10° S 04:51:56 80° E 04:55:54 10° N
Cosmos 44 Rocket 3.4 04:52:42 55° WNW 04:52:57 56° WNW 04:58:00 10° NNE
Ariane Rocket 3.9 04:50:27 10° NNE 04:55:22 49° E 05:00:15 10° S
Cosmos 1624 Rocket 3.9 04:53:13 30° NNW 04:55:53 86° WSW 05:01:13 10° SSE
ASTRO E2 3.9 04:56:26 29° SSW 04:57:38 35° SSE 05:01:20 10° E
Cosmos 1300 Rocket 3.4 04:56:42 10° SSW 05:01:05 63° W 05:05:28 10° N
Cosmos 1371 Rocket 4.0 04:59:26 39° NW 05:01:13 60° WSW 05:06:21 10° S
USA 215 3.2 04:55:50 10° NE 05:02:18 67° NW 05:07:35 16° WSW
Lacrosse 5 2.4 05:03:19 37° NW 05:03:19 37° NW 05:07:59 10° NNE
Cosmos 192 4.4 05:00:15 17° SW 05:03:48 51° WNW 05:08:35 10° N
Okean 1-7 Rocket 4.1 04:59:34 10° N 05:03:55 59° E 05:08:13 10° SSE
USA 32 4.3 05:05:03 37° NW 05:06:14 43° W 05:11:09 10° SSW
Okean 1 4.2 05:08:32 32° SW 05:08:32 32° SW 05:11:11 10° SSW
Meteor 1-19 Rocket 4.4 05:03:01 10° N 05:08:52 76° E 05:14:34 10° SSE
SKYMED 3 4.5 05:10:22 10° SSE 05:14:42 87° WSW 05:19:02 10° NNW
Meteor 1-11 Rocket 3.7 05:09:19 10° SSW 05:15:10 71° W 05:20:55 10° N
Cosmos 1346 Rocket 3.5 05:17:06 33° WSW 05:17:06 33° WSW 05:20:16 10° SSW
Tiangong 2 2.8 05:17:36 21° N 05:17:58 21° N 05:20:28 10° ENE
Nadezhda 3 Rocket 4.0 05:17:43 10° N 05:24:05 77° W 05:30:26 10° S
Cosmos 2084 3.6 05:22:28 10° SSW 05:26:22 65° ESE 05:30:10 10° NE
CSL-04 Rocket 3.8 05:21:48 10° NNE 05:27:22 83° ESE 05:32:49 10° SSW
Meteor 1-13 Rocket 4.4 05:23:40 10° NNW 05:29:29 57° W 05:35:15 10° S
Cosmos 1452 Rocket 3.7 05:26:26 10° NNW 05:31:44 75° ENE 05:36:59 10° SSE
SKYMED 2 3.7 05:28:31 10° S 05:32:44 51° W 05:36:58 10° NNW
USA 129 4.0 05:31:06 10° SE 05:32:53 24° ENE 05:34:43 10° NNE
CSL-04 Debris 4.3 05:28:03 10° NNE 05:33:34 80° ESE 05:39:02 10° S
Meteor 1-23 Rocket 4.4 05:28:50 10° N 05:34:24 77° E 05:39:57 10° SSE
Cosmos 962 Rocket 4.4 05:29:08 10° SSW 05:35:13 64° W 05:41:26 10° N
GPS 2-05 Rocket1 4.0 05:39:34 18° WSW 05:41:33 32° SSW 05:44:47 10° SE
Meteor 2-4 Rocket 3.7 05:36:37 10° NNW 05:42:11 77° W 05:47:54 10° S
Okean 2 3.9 05:38:52 10° N 05:43:00 62° E 05:47:06 10° SSE
Cosmos 2369 Rocket 2.2 05:39:01 10° NNW 05:44:43 72° WSW 05:50:21 10° SSE
Cosmos 2341 Rocket 4.2 05:40:46 10° SSW 05:46:51 51° W 05:52:56 10° N
Cosmos 44 4.1 05:42:22 10° WSW 05:47:11 33° NW 05:51:53 10° N
Meteor 1-5 Rocket 4.0 05:42:24 10° SSW 05:47:47 78° W 05:53:06 10° N
OAO 3 Copernicus 4.4 05:44:47 16° W 05:48:50 72° SSW 05:53:54 10° ESE
Cosmos 1536 3.6 05:47:15 10° SW 05:50:45 30° WNW 05:54:18 10° NNW
SMAP 3.9 05:49:16 10° NNE 05:53:50 54° E 05:58:23 10° S
CZ-4 R/B 1.3 05:53:09 10° NNE 05:57:05 84° ESE 06:00:58 10° S
Cosmos 1633 4.3 05:55:56 10° WSW 05:57:53 14° WNW 05:59:50 10° NW
Cosmos 1025 Rocket 3.3 05:54:39 10° NNW 05:58:50 46° W 06:02:59 10° SSW
Cosmos 158 Rocket 4.3 05:55:39 10° S 06:00:52 75° ESE 06:06:15 10° NNE
PAYLOAD A 4.1 05:59:30 10° N 06:04:54 72° WNW 06:10:17 10° SSW
YAOGAN 1 3.0 06:01:29 10° NNE 06:05:48 69° ESE 06:10:06 10° S
Cosmos 1943 4.2 06:02:17 10° WSW 06:06:48 24° WNW 06:11:21 10° N
Cosmos 1269 Rocket 4.1 06:02:47 10° SSW 06:07:57 55° WNW 06:13:10 10° N
SJ-12 3.9 06:08:19 10° N 06:12:28 71° WNW 06:16:35 10° SSW
USA 229 DEB 4.1 06:10:07 10° WSW 06:16:31 41° NW 06:23:01 10° NNE
USA 229 4.1 06:10:12 10° WSW 06:16:36 41° NW 06:23:07 10° NNE
Cosmos 1544 Rocket 3.9 06:12:56 10° SSW 06:17:04 44° W 06:21:16 10° N
Cosmos 1943 Rocket 2.2 06:17:00 10° NNW 06:22:31 76° WSW 06:28:00 10° SSE
